Location: Haliburton Scout Reserve
(45.0900°N, 78.3200°W)
Time: 01:58:42
(UTC-05:00)

Courier 1B - All Passes

Search period start: 06 February 2023 00:00
Search period end: 16 February 2023 00:00
Orbit: 962 x 1209 km, 28.3° (Epoch: 05 February)

Date Brightness Start Highest point End Pass type
(mag) Time Alt. Az. Time Alt. Az. Time Alt. Az.
06 Feb - 11:11:37 10° SSW 11:14:55 14° SSE 11:18:07 10° SE daylight
06 Feb - 13:03:25 10° SW 13:07:47 18° S 13:12:02 10° SE daylight
06 Feb - 14:57:25 10° SW 15:00:35 14° SSW 15:03:43 10° SSE daylight
07 Feb - 10:18:57 10° S 10:21:24 12° SSE 10:23:49 10° SE daylight
07 Feb - 12:09:51 10° SW 12:14:16 18° S 12:18:34 10° SE daylight
07 Feb - 14:03:18 10° SW 14:07:08 16° S 14:10:53 10° SSE daylight
08 Feb - 11:16:22 10° SSW 11:20:45 17° S 11:24:59 10° SE daylight
08 Feb - 13:09:21 10° SW 13:13:39 18° S 13:17:49 10° SSE daylight
09 Feb - 10:23:02 10° SSW 10:27:12 16° SSE 10:31:15 10° SE daylight
09 Feb - 12:15:31 10° SW 12:20:08 19° S 12:24:35 10° SE daylight
09 Feb - 14:10:13 10° SW 14:12:56 13° SSW 14:15:37 10° S daylight
10 Feb - 09:29:53 10° SSW 09:33:39 15° SSE 09:37:19 10° SE daylight
10 Feb - 11:21:47 10° SW 11:26:36 19° S 11:31:14 10° SE daylight
10 Feb - 13:15:45 10° SW 13:19:28 15° SSW 13:23:05 10° SSE daylight
11 Feb - 08:37:07 10° S 08:40:05 13° SSE 08:42:59 10° SE daylight
11 Feb - 10:28:08 10° SW 10:33:02 19° S 10:37:45 10° SE daylight
11 Feb - 12:21:36 10° SW 12:25:58 17° S 12:30:11 10° SSE daylight
12 Feb - 07:45:25 10° SSE 07:46:31 10° SSE 07:47:36 10° SSE daylight
12 Feb - 09:34:37 10° SSW 09:39:27 18° S 09:44:07 10° SE daylight
12 Feb - 11:27:37 10° SW 11:32:26 19° S 11:37:05 10° SE daylight
12 Feb - 13:23:10 10° SW 13:25:13 11° SSW 13:27:15 10° S daylight
13 Feb - 08:41:15 10° SSW 08:45:51 17° SSE 08:50:18 10° SE daylight
13 Feb - 10:33:45 10° SW 10:38:52 20° S 10:43:48 10° SE daylight
13 Feb - 12:28:14 10° SW 12:31:45 14° SSW 12:35:11 10° SSE daylight
14 Feb - 07:48:07 10° SSW 07:52:15 15° SSE 07:56:17 10° SE daylight
14 Feb - 09:39:58 10° SW 09:45:16 21° S 09:50:22 10° SE daylight
14 Feb - 11:33:52 10° SW 11:38:14 17° SSW 11:42:28 10° SSE daylight
15 Feb - 06:55:23 10° S 06:58:38 13° SSE 07:01:51 10° SE daylight
15 Feb - 08:46:20 10° SW 08:51:39 20° S 08:56:47 10° SE daylight
15 Feb - 10:39:44 10° SW 10:44:41 19° S 10:49:27 10° SSE daylight
15 Feb - 12:37:09 10° SSW 12:37:27 10° SSW 12:37:45 10° SSW daylight
